When you browse on this site, cookies collect data to enhance your experience and personalize the content and advertising you see.
Visit our Privacy Policy to learn more. By continuing to use the site, you agree to this use of cookies and data.
  • In Österreich
  • Länderverzeichnis
  • Für 7 Tage
  • Wassertemperatur
  • Wetterkarte
  • News
  • Widgets
  • user-avatar
    Anmelden

    Stündliche Wetter Singuilucan

    Heute, 6 Juni, Samstag

    Zeit Temperatur Niederschläge Wind Luftdruck Luftfeuchtigkeit
    00:00 +12°C° 0 mm 1 m/S 554 mmHg 90%
    01:00 +11°C° 0 mm 1 m/S 553 mmHg 90%
    02:00 +11°C° 0 mm 1 m/S 552 mmHg 90%
    03:00 +11°C° 0 mm 1 m/S 553 mmHg 89%
    04:00 +10°C° 0 mm 1 m/S 553 mmHg 89%
    05:00 +10°C° 0 mm 1 m/S 553 mmHg 88%
    06:00 +13°C° 0 mm 1 m/S 554 mmHg 76%
    07:00 +15°C° 0 mm 1 m/S 556 mmHg 64%
    08:00 +18°C° 0 mm 1 m/S 557 mmHg 51%
    09:00 +20°C° 0 mm 1 m/S 557 mmHg 46%
    10:00 +20°C° 0 mm 2 m/S 558 mmHg 41%
    11:00 +22°C° 0 mm 3 m/S 558 mmHg 35%
    12:00 +22°C° 0 mm 4 m/S 558 mmHg 36%
    13:00 +23°C° 0 mm 4 m/S 557 mmHg 37%
    14:00 +23°C° 0 mm 5 m/S 557 mmHg 37%
    15:00 +21°C° 0.1 mm 5 m/S 556 mmHg 46%
    16:00 +20°C° 0.1 mm 5 m/S 555 mmHg 55%
    17:00 +18°C° 0.1 mm 4 m/S 555 mmHg 65%
    18:00 +17°C° 0.1 mm 3 m/S 554 mmHg 73%
    19:00 +14°C° 0.1 mm 3 m/S 554 mmHg 80%
    20:00 +14°C° 0.1 mm 2 m/S 554 mmHg 88%
    21:00 +13°C° 0 mm 2 m/S 554 mmHg 88%
    22:00 +13°C° 0 mm 1 m/S 554 mmHg 87%
    23:00 +12°C° 0 mm 1 m/S 554 mmHg 86%

    Morgen, 7 Juni, Sonntag

    Zeit Temperatur Niederschläge Wind Luftdruck Luftfeuchtigkeit
    00:00 +12°C° 0 mm 1 m/S 554 mmHg 83%
    01:00 +12°C° 0 mm 1 m/S 553 mmHg 80%
    02:00 +12°C° 0 mm 1 m/S 553 mmHg 76%
    03:00 +12°C° 0 mm 1 m/S 553 mmHg 78%
    04:00 +11°C° 0 mm 1 m/S 552 mmHg 79%
    05:00 +11°C° 0 mm 1 m/S 552 mmHg 81%
    06:00 +14°C° 0 mm 1 m/S 554 mmHg 72%
    07:00 +16°C° 0 mm 1 m/S 555 mmHg 64%
    08:00 +18°C° 0 mm 2 m/S 556 mmHg 55%
    09:00 +20°C° 0 mm 2 m/S 557 mmHg 48%
    10:00 +21°C° 0 mm 2 m/S 558 mmHg 41%
    11:00 +24°C° 0 mm 3 m/S 558 mmHg 35%
    12:00 +24°C° 0 mm 3 m/S 558 mmHg 36%
    13:00 +24°C° 0 mm 3 m/S 557 mmHg 37%
    14:00 +22°C° 0 mm 3 m/S 556 mmHg 39%
    15:00 +21°C° 0.3 mm 2 m/S 556 mmHg 46%
    16:00 +20°C° 0.3 mm 2 m/S 555 mmHg 53%
    17:00 +20°C° 0.3 mm 1 m/S 554 mmHg 60%
    18:00 +19°C° 0.4 mm 1 m/S 554 mmHg 64%
    19:00 +18°C° 0.4 mm 1 m/S 554 mmHg 69%
    20:00 +15°C° 0.4 mm 0 m/S 554 mmHg 73%
    21:00 +15°C° 0 mm 0 m/S 554 mmHg 73%
    22:00 +15°C° 0 mm 1 m/S 554 mmHg 74%
    23:00 +15°C° 0 mm 1 m/S 554 mmHg 74%

    übermorgen, 8 Juni, Montag

    Zeit Temperatur Niederschläge Wind Luftdruck Luftfeuchtigkeit
    00:00 +15°C° 0 mm 1 m/S 554 mmHg 75%
    01:00 +14°C° 0 mm 1 m/S 554 mmHg 77%
    02:00 +14°C° 0 mm 1 m/S 553 mmHg 78%
    03:00 +13°C° 0 mm 1 m/S 553 mmHg 80%
    04:00 +13°C° 0 mm 1 m/S 553 mmHg 82%
    05:00 +13°C° 0 mm 1 m/S 553 mmHg 83%
    06:00 +15°C° 0 mm 2 m/S 554 mmHg 76%
    07:00 +17°C° 0 mm 2 m/S 556 mmHg 68%
    08:00 +19°C° 0 mm 2 m/S 557 mmHg 60%
    09:00 +21°C° 0 mm 2 m/S 557 mmHg 52%
    10:00 +23°C° 0 mm 2 m/S 558 mmHg 45%
    11:00 +25°C° 0 mm 2 m/S 559 mmHg 37%
    12:00 +25°C° 0.1 mm 2 m/S 558 mmHg 38%
    13:00 +25°C° 0.1 mm 2 m/S 558 mmHg 38%
    14:00 +25°C° 0.1 mm 2 m/S 557 mmHg 39%
    15:00 +24°C° 0.3 mm 2 m/S 557 mmHg 43%
    16:00 +23°C° 0.3 mm 2 m/S 556 mmHg 48%
    17:00 +21°C° 0.3 mm 2 m/S 555 mmHg 52%
    18:00 +20°C° 0.5 mm 2 m/S 555 mmHg 58%
    19:00 +18°C° 0.5 mm 2 m/S 555 mmHg 64%
    20:00 +17°C° 0.5 mm 2 m/S 555 mmHg 70%
    21:00 +16°C° 0 mm 1 m/S 555 mmHg 71%
    22:00 +16°C° 0 mm 1 m/S 555 mmHg 72%
    23:00 +15°C° 0 mm 1 m/S 555 mmHg 73%

    9 Juni, Dienstag

    Zeit Temperatur Niederschläge Wind Luftdruck Luftfeuchtigkeit
    00:00 +15°C° 0 mm 1 m/S 555 mmHg 74%
    01:00 +15°C° 0 mm 1 m/S 554 mmHg 74%
    02:00 +14°C° 0 mm 1 m/S 554 mmHg 75%
    03:00 +14°C° 0 mm 1 m/S 554 mmHg 76%
    04:00 +14°C° 0 mm 1 m/S 554 mmHg 77%
    05:00 +13°C° 0 mm 1 m/S 554 mmHg 78%
    06:00 +16°C° 0 mm 1 m/S 555 mmHg 67%
    07:00 +19°C° 0 mm 1 m/S 557 mmHg 56%
    08:00 +22°C° 0 mm 1 m/S 558 mmHg 45%
    09:00 +23°C° 0 mm 2 m/S 559 mmHg 38%
    10:00 +25°C° 0 mm 3 m/S 559 mmHg 32%
    11:00 +26°C° 0 mm 5 m/S 560 mmHg 25%
    12:00 +26°C° 0 mm 5 m/S 559 mmHg 25%
    13:00 +26°C° 0 mm 6 m/S 559 mmHg 24%
    14:00 +27°C° 0 mm 7 m/S 559 mmHg 24%
    15:00 +24°C° 0 mm 6 m/S 558 mmHg 27%
    16:00 +23°C° 0 mm 6 m/S 557 mmHg 30%
    17:00 +22°C° 0 mm 5 m/S 556 mmHg 33%
    18:00 +20°C° 0 mm 4 m/S 556 mmHg 44%
    19:00 +17°C° 0 mm 3 m/S 555 mmHg 55%
    20:00 +15°C° 0 mm 2 m/S 555 mmHg 67%
    21:00 +15°C° 0 mm 1 m/S 555 mmHg 69%
    22:00 +14°C° 0 mm 1 m/S 555 mmHg 72%
    23:00 +14°C° 0 mm 1 m/S 555 mmHg 74%

    10 Juni, Mittwoch

    Zeit Temperatur Niederschläge Wind Luftdruck Luftfeuchtigkeit
    00:00 +13°C° 0 mm 1 m/S 555 mmHg 75%
    01:00 +13°C° 0 mm 1 m/S 554 mmHg 77%
    02:00 +12°C° 0 mm 0 m/S 554 mmHg 78%
    03:00 +11°C° 0 mm 0 m/S 554 mmHg 79%
    04:00 +11°C° 0 mm 0 m/S 554 mmHg 80%
    05:00 +10°C° 0 mm 0 m/S 554 mmHg 81%
    06:00 +13°C° 0 mm 1 m/S 555 mmHg 71%
    07:00 +16°C° 0 mm 1 m/S 557 mmHg 60%
    08:00 +18°C° 0 mm 2 m/S 558 mmHg 49%
    09:00 +19°C° 0 mm 3 m/S 559 mmHg 46%
    10:00 +20°C° 0 mm 4 m/S 559 mmHg 43%
    11:00 +22°C° 0 mm 4 m/S 560 mmHg 40%
    12:00 +22°C° 0 mm 5 m/S 559 mmHg 42%
    13:00 +22°C° 0 mm 6 m/S 559 mmHg 44%
    14:00 +22°C° 0 mm 6 m/S 558 mmHg 46%
    15:00 +20°C° 0 mm 6 m/S 558 mmHg 52%
    16:00 +19°C° 0 mm 6 m/S 557 mmHg 59%
    17:00 +16°C° 0 mm 6 m/S 556 mmHg 65%
    18:00 +15°C° 0 mm 5 m/S 556 mmHg 72%
    19:00 +14°C° 0 mm 4 m/S 556 mmHg 80%
    20:00 +13°C° 0 mm 3 m/S 556 mmHg 88%
    21:00 +13°C° 0 mm 2 m/S 556 mmHg 89%
    22:00 +13°C° 0 mm 2 m/S 556 mmHg 89%
    23:00 +12°C° 0 mm 2 m/S 556 mmHg 90%

    11 Juni, Donnerstag

    Zeit Temperatur Niederschläge Wind Luftdruck Luftfeuchtigkeit
    00:00 +12°C° 0 mm 2 m/S 556 mmHg 90%
    01:00 +12°C° 0 mm 2 m/S 556 mmHg 90%
    02:00 +12°C° 0 mm 1 m/S 555 mmHg 89%
    03:00 +12°C° 0 mm 1 m/S 555 mmHg 90%
    04:00 +11°C° 0 mm 1 m/S 555 mmHg 90%
    05:00 +11°C° 0 mm 1 m/S 555 mmHg 90%
    06:00 +13°C° 0 mm 2 m/S 556 mmHg 83%
    07:00 +14°C° 0 mm 2 m/S 557 mmHg 75%
    08:00 +14°C° 0 mm 3 m/S 558 mmHg 68%
    09:00 +16°C° 0 mm 3 m/S 558 mmHg 63%
    10:00 +18°C° 0 mm 4 m/S 559 mmHg 59%
    11:00 +19°C° 0 mm 5 m/S 559 mmHg 54%
    12:00 +19°C° 0.2 mm 5 m/S 559 mmHg 55%
    13:00 +19°C° 0.2 mm 5 m/S 558 mmHg 55%
    14:00 +19°C° 0.2 mm 5 m/S 558 mmHg 56%
    15:00 +17°C° 0.1 mm 5 m/S 557 mmHg 61%
    16:00 +16°C° 0.1 mm 5 m/S 557 mmHg 66%
    17:00 +15°C° 0.1 mm 5 m/S 556 mmHg 71%
    18:00 +14°C° 0 mm 4 m/S 556 mmHg 77%
    19:00 +13°C° 0 mm 3 m/S 556 mmHg 83%
    20:00 +13°C° 0 mm 2 m/S 556 mmHg 89%
    21:00 +13°C° 0.1 mm 2 m/S 556 mmHg 89%
    22:00 +13°C° 0.1 mm 2 m/S 556 mmHg 89%
    23:00 +12°C° 0.1 mm 2 m/S 557 mmHg 90%
    Mehr zeigen